Time,TemperatureF,DewpointF,PressureIn,WindDirection,WindDirectionDegrees,WindSpeedMPH,WindSpeedGustMPH,Humidity,HourlyPrecipIn,Conditions,Clouds,dailyrainin,SoftwareType,DateUTC
2013-02-13 00:00:00,44.4,30.2,28.82,SSW,209,0.0,0.0,57,0.00,,SKC,0.00,VWS V14.00,2013-02-13 05:00:00,
2013-02-13 00:03:00,44.4,30.2,28.79,SSW,209,0.0,0.0,57,0.00,,SKC,0.00,VWS V14.00,2013-02-13 05:03:00,
2013-02-13 00:08:00,44.4,30.2,28.79,SSW,209,0.0,0.0,57,0.00,,SKC,0.00,VWS V14.00,2013-02-13 05:08:00,
2013-02-13 00:10:00,44.6,29.9,28.79,SSW,209,0.0,0.0,56,0.00,,SKC,0.00,VWS V14.00,2013-02-13 05:10:00,
2013-02-13 00:18:00,44.6,29.9,28.79,SSW,209,0.0,0.0,56,0.00,,SKC,0.00,VWS V14.00,2013-02-13 05:18:00,
2013-02-13 00:23:00,44.6,30.3,28.79,SSW,209,0.0,0.0,57,0.00,,SKC,0.00,VWS V14.00,2013-02-13 05:23:00,
2013-02-13 00:28:00,44.6,30.3,28.79,SSW,209,0.0,0.0,57,0.00,,SKC,0.00,VWS V14.00,2013-02-13 05:28:00,
2013-02-13 00:33:00,44.4,30.6,28.79,SSW,209,0.0,0.0,58,0.00,,SKC,0.00,VWS V14.00,2013-02-13 05:33:00,
2013-02-13 00:38:00,44.4,30.6,28.79,SSW,209,0.0,0.0,58,0.00,,SKC,0.00,VWS V14.00,2013-02-13 05:38:00,
2013-02-13 00:43:00,44.6,30.8,28.79,SSW,209,0.0,0.0,58,0.00,,SKC,0.00,VWS V14.00,2013-02-13 05:43:00,
2013-02-13 00:48:00,44.6,30.8,28.76,SSW,209,0.0,0.0,58,0.00,,SKC,0.00,VWS V14.00,2013-02-13 05:48:00,
2013-02-13 00:53:00,44.6,30.8,28.76,SSW,209,0.0,0.0,58,0.00,,SKC,0.00,VWS V14.00,2013-02-13 05:53:00,
2013-02-13 00:58:00,44.6,30.8,28.76,SSW,209,0.0,0.0,58,0.00,,SKC,0.00,VWS V14.00,2013-02-13 05:58:00,
2013-02-13 01:03:00,44.6,31.2,28.76,SSW,209,0.0,0.0,59,0.00,,SKC,0.00,VWS V14.00,2013-02-13 06:03:00,
2013-02-13 01:08:00,44.6,31.2,28.76,SSW,209,0.0,0.0,59,0.00,,SKC,0.00,VWS V14.00,2013-02-13 06:08:00,
2013-02-13 01:13:00,44.6,31.2,28.76,SSW,209,0.0,0.0,59,0.00,,SKC,0.00,VWS V14.00,2013-02-13 06:13:00,
2013-02-13 01:18:00,44.6,31.2,28.76,SSW,209,0.0,0.0,59,0.00,,SKC,0.00,VWS V14.00,2013-02-13 06:18:00,
2013-02-13 01:23:00,44.6,31.2,28.76,SSW,209,0.0,0.0,59,0.00,,SKC,0.00,VWS V14.00,2013-02-13 06:23:00,
2013-02-13 01:28:00,44.6,31.2,28.76,SSW,209,0.0,0.0,59,0.00,,SKC,0.00,VWS V14.00,2013-02-13 06:28:00,
2013-02-13 01:33:00,44.6,31.2,28.76,SSW,209,0.0,0.0,59,0.00,,SKC,0.00,VWS V14.00,2013-02-13 06:33:00,
2013-02-13 01:38:00,44.6,31.2,28.76,SSW,209,0.0,0.0,59,0.00,,SKC,0.00,VWS V14.00,2013-02-13 06:38:00,
2013-02-13 01:43:00,44.6,31.2,28.76,SSW,209,0.0,0.0,59,0.00,,SKC,0.00,VWS V14.00,2013-02-13 06:43:00,
2013-02-13 01:48:00,44.6,31.6,28.76,SSW,209,0.0,0.0,60,0.00,,SKC,0.00,VWS V14.00,2013-02-13 06:48:00,
2013-02-13 01:53:00,44.6,31.6,28.76,SSW,209,0.0,0.0,60,0.00,,SKC,0.00,VWS V14.00,2013-02-13 06:53:00,
2013-02-13 01:58:00,44.6,31.6,28.76,SSW,209,0.0,0.0,60,0.04,,SKC,0.04,VWS V14.00,2013-02-13 06:58:00,
2013-02-13 02:03:00,44.6,31.6,28.76,SSW,209,0.0,0.0,60,0.04,,SKC,0.04,VWS V14.00,2013-02-13 07:03:00,
2013-02-13 02:08:00,44.2,31.7,28.76,SSW,209,0.0,0.0,61,0.04,,SKC,0.04,VWS V14.00,2013-02-13 07:08:00,
2013-02-13 02:13:00,44.2,31.7,28.76,SSW,209,0.0,0.0,61,0.04,,SKC,0.04,VWS V14.00,2013-02-13 07:13:00,
2013-02-13 02:18:00,44.2,31.7,28.73,SSW,209,0.0,0.0,61,0.04,,SKC,0.04,VWS V14.00,2013-02-13 07:18:00,
2013-02-13 02:23:00,44.2,31.7,28.73,SSW,209,0.0,0.0,61,0.04,,SKC,0.04,VWS V14.00,2013-02-13 07:23:00,
2013-02-13 02:28:00,44.2,32.1,28.73,SSW,209,0.0,0.0,62,0.04,,SKC,0.04,VWS V14.00,2013-02-13 07:28:00,
2013-02-13 02:33:00,44.2,32.1,28.73,SSW,209,0.0,0.0,62,0.04,,SKC,0.04,VWS V14.00,2013-02-13 07:33:00,
2013-02-13 02:38:00,44.2,32.1,28.73,SSW,209,0.0,0.0,62,0.04,,SKC,0.04,VWS V14.00,2013-02-13 07:38:00,
2013-02-13 02:43:00,44.2,32.1,28.73,West,274,0.0,0.0,62,0.12,,SKC,0.12,VWS V14.00,2013-02-13 07:43:00,
2013-02-13 02:48:00,44.1,32.3,28.73,West,274,0.0,0.0,63,0.12,,SKC,0.12,VWS V14.00,2013-02-13 07:48:00,
2013-02-13 02:53:00,43.9,32.1,28.73,West,274,0.0,0.0,63,0.12,,SKC,0.12,VWS V14.00,2013-02-13 07:53:00,
2013-02-13 02:58:00,43.9,32.5,28.73,West,274,0.0,0.0,64,0.12,,SKC,0.12,VWS V14.00,2013-02-13 07:58:00,
2013-02-13 03:03:00,43.9,32.5,28.73,West,274,0.0,0.0,64,0.08,,SKC,0.12,VWS V14.00,2013-02-13 08:03:00,
2013-02-13 03:08:00,43.9,32.5,28.73,West,274,0.0,0.0,64,0.08,,SKC,0.12,VWS V14.00,2013-02-13 08:08:00,
2013-02-13 03:13:00,43.9,32.5,28.73,West,274,0.0,0.0,64,0.08,,SKC,0.12,VWS V14.00,2013-02-13 08:13:00,
2013-02-13 03:18:00,43.7,32.3,28.70,West,274,0.0,0.0,64,0.08,,SKC,0.12,VWS V14.00,2013-02-13 08:18:00,
2013-02-13 03:23:00,43.7,32.7,28.70,West,274,0.0,0.0,65,0.08,,SKC,0.12,VWS V14.00,2013-02-13 08:23:00,
2013-02-13 03:28:00,43.7,32.7,28.70,West,274,0.0,0.0,65,0.08,,SKC,0.12,VWS V14.00,2013-02-13 08:28:00,
2013-02-13 03:33:00,43.7,32.7,28.70,West,274,0.0,0.0,65,0.08,,SKC,0.12,VWS V14.00,2013-02-13 08:33:00,
2013-02-13 03:38:00,43.5,32.9,28.70,West,274,0.0,0.0,66,0.08,,SKC,0.12,VWS V14.00,2013-02-13 08:38:00,
2013-02-13 03:43:00,43.5,32.9,28.70,West,274,0.0,0.0,66,0.08,,SKC,0.12,VWS V14.00,2013-02-13 08:43:00,
2013-02-13 03:48:00,43.5,32.9,28.70,West,274,0.0,0.0,66,0.08,,SKC,0.12,VWS V14.00,2013-02-13 08:48:00,
2013-02-13 03:53:00,43.5,32.9,28.70,West,274,0.0,0.0,66,0.00,,SKC,0.12,VWS V14.00,2013-02-13 08:53:00,
2013-02-13 03:58:00,43.5,33.3,28.70,West,274,0.0,0.0,67,0.00,,SKC,0.12,VWS V14.00,2013-02-13 08:58:00,
2013-02-13 04:03:00,43.5,33.3,28.70,West,274,0.0,0.0,67,0.00,,SKC,0.12,VWS V14.00,2013-02-13 09:03:00,
2013-02-13 04:08:00,43.5,33.3,28.70,West,274,0.0,0.0,67,0.00,,SKC,0.12,VWS V14.00,2013-02-13 09:08:00,
2013-02-13 04:13:00,43.5,33.3,28.70,West,274,0.0,0.0,67,0.00,,SKC,0.12,VWS V14.00,2013-02-13 09:13:00,
2013-02-13 04:18:00,43.5,33.3,28.70,West,274,0.0,0.0,67,0.00,,SKC,0.12,VWS V14.00,2013-02-13 09:18:00,
2013-02-13 04:23:00,43.5,33.7,28.70,West,274,0.0,0.0,68,0.00,,SKC,0.12,VWS V14.00,2013-02-13 09:23:00,
2013-02-13 04:28:00,43.5,33.7,28.70,West,274,0.0,0.0,68,0.00,,SKC,0.12,VWS V14.00,2013-02-13 09:28:00,
2013-02-13 04:33:00,43.5,33.7,28.67,West,274,0.0,0.0,68,0.00,,SKC,0.12,VWS V14.00,2013-02-13 09:33:00,
2013-02-13 04:38:00,43.5,33.7,28.67,West,274,0.0,0.0,68,0.00,,SKC,0.12,VWS V14.00,2013-02-13 09:38:00,
2013-02-13 04:43:00,43.5,33.7,28.67,West,274,0.0,0.0,68,0.00,,SKC,0.12,VWS V14.00,2013-02-13 09:43:00,
2013-02-13 04:48:00,43.3,33.5,28.67,West,274,0.0,0.0,68,0.00,,SKC,0.12,VWS V14.00,2013-02-13 09:48:00,
2013-02-13 04:53:00,43.2,33.7,28.67,West,274,0.0,0.0,69,0.00,,SKC,0.12,VWS V14.00,2013-02-13 09:53:00,
2013-02-13 04:58:00,43.2,33.7,28.67,West,274,0.0,0.0,69,0.00,,SKC,0.12,VWS V14.00,2013-02-13 09:58:00,
2013-02-13 05:03:00,43.2,33.7,28.67,West,274,0.0,0.0,69,0.00,,SKC,0.12,VWS V14.00,2013-02-13 10:03:00,
2013-02-13 05:08:00,43.2,33.7,28.67,West,274,0.0,0.0,69,0.00,,SKC,0.12,VWS V14.00,2013-02-13 10:08:00,
2013-02-13 05:13:00,43.2,33.7,28.67,West,274,0.0,0.0,69,0.00,,SKC,0.12,VWS V14.00,2013-02-13 10:13:00,
2013-02-13 05:18:00,43.2,34.0,28.64,West,274,0.0,0.0,70,0.00,,SKC,0.12,VWS V14.00,2013-02-13 10:18:00,
2013-02-13 05:23:00,43.2,34.0,28.64,West,274,0.0,0.0,70,0.00,,SKC,0.12,VWS V14.00,2013-02-13 10:23:00,
2013-02-13 05:28:00,43.2,34.0,28.64,West,274,0.0,0.0,70,0.00,,SKC,0.12,VWS V14.00,2013-02-13 10:28:00,
2013-02-13 05:33:00,43.2,34.0,28.64,West,274,0.0,0.0,70,0.00,,SKC,0.12,VWS V14.00,2013-02-13 10:33:00,
2013-02-13 05:38:00,43.2,34.0,28.64,West,274,0.0,0.0,70,0.00,,SKC,0.12,VWS V14.00,2013-02-13 10:38:00,
2013-02-13 05:43:00,43.0,33.9,28.64,West,274,0.0,0.0,70,0.00,,SKC,0.12,VWS V14.00,2013-02-13 10:43:00,
2013-02-13 05:48:00,43.0,34.2,28.64,West,274,0.0,0.0,71,0.00,,SKC,0.12,VWS V14.00,2013-02-13 10:48:00,
2013-02-13 05:53:00,43.2,34.4,28.64,West,274,0.0,0.0,71,0.00,,SKC,0.12,VWS V14.00,2013-02-13 10:53:00,
2013-02-13 05:58:00,43.2,34.4,28.64,West,274,0.0,0.0,71,0.00,,SKC,0.12,VWS V14.00,2013-02-13 10:58:00,
2013-02-13 06:03:00,43.2,34.4,28.64,West,274,0.0,0.0,71,0.00,,SKC,0.12,VWS V14.00,2013-02-13 11:03:00,
2013-02-13 06:09:00,43.0,34.2,28.64,West,274,0.0,0.0,71,0.00,,SKC,0.12,VWS V14.00,2013-02-13 11:09:00,
2013-02-13 06:14:00,43.0,34.2,28.64,West,274,0.0,0.0,71,0.00,,SKC,0.12,VWS V14.00,2013-02-13 11:14:00,
2013-02-13 06:19:00,43.2,34.4,28.64,West,274,0.0,0.0,71,0.00,,SKC,0.12,VWS V14.00,2013-02-13 11:19:00,
2013-02-13 06:24:00,43.0,34.2,28.64,West,274,0.0,0.0,71,0.00,,SKC,0.12,VWS V14.00,2013-02-13 11:24:00,
2013-02-13 06:29:00,43.2,34.4,28.64,West,274,0.0,0.0,71,0.00,,SKC,0.12,VWS V14.00,2013-02-13 11:29:00,
2013-02-13 06:34:00,43.2,34.4,28.64,West,274,0.0,0.0,71,0.00,,SKC,0.12,VWS V14.00,2013-02-13 11:34:00,
2013-02-13 06:39:00,43.2,34.8,28.64,West,274,0.0,0.0,72,0.00,,SKC,0.12,VWS V14.00,2013-02-13 11:39:00,
2013-02-13 06:44:00,43.2,34.8,28.64,West,274,0.0,0.0,72,0.00,,SKC,0.12,VWS V14.00,2013-02-13 11:44:00,
2013-02-13 06:49:00,43.2,34.8,28.64,West,274,0.0,0.0,72,0.00,,SKC,0.12,VWS V14.00,2013-02-13 11:49:00,
2013-02-13 06:54:00,43.3,34.9,28.64,West,274,0.0,0.0,72,0.00,,SKC,0.12,VWS V14.00,2013-02-13 11:54:00,
2013-02-13 06:59:00,43.3,34.9,28.64,West,274,0.0,0.0,72,0.00,,SKC,0.12,VWS V14.00,2013-02-13 11:59:00,
2013-02-13 07:04:00,43.3,34.9,28.64,West,274,0.0,0.0,72,0.00,,SKC,0.12,VWS V14.00,2013-02-13 12:04:00,
2013-02-13 07:09:00,43.3,34.9,28.64,West,274,0.0,0.0,72,0.00,,SKC,0.12,VWS V14.00,2013-02-13 12:09:00,
2013-02-13 07:14:00,43.3,34.9,28.64,West,274,0.0,0.0,72,0.00,,SKC,0.12,VWS V14.00,2013-02-13 12:14:00,
2013-02-13 07:19:00,43.3,34.9,28.64,West,274,0.0,0.0,72,0.00,,SKC,0.12,VWS V14.00,2013-02-13 12:19:00,
2013-02-13 07:24:00,43.3,34.9,28.64,West,274,0.0,0.0,72,0.00,,SKC,0.12,VWS V14.00,2013-02-13 12:24:00,
2013-02-13 07:29:00,43.3,34.9,28.64,West,274,0.0,0.0,72,0.00,,SKC,0.12,VWS V14.00,2013-02-13 12:29:00,
2013-02-13 07:34:00,43.3,34.9,28.64,West,274,0.0,0.0,72,0.00,,SKC,0.12,VWS V14.00,2013-02-13 12:34:00,
2013-02-13 07:39:00,43.3,34.9,28.64,West,274,0.0,0.0,72,0.00,,SKC,0.12,VWS V14.00,2013-02-13 12:39:00,
2013-02-13 07:44:00,43.3,35.3,28.64,West,274,0.0,0.0,73,0.00,,SKC,0.12,VWS V14.00,2013-02-13 12:44:00,
2013-02-13 07:49:00,43.3,35.3,28.64,West,274,0.0,0.0,73,0.00,,SKC,0.12,VWS V14.00,2013-02-13 12:49:00,
2013-02-13 07:54:00,43.5,35.5,28.64,West,274,0.0,0.0,73,0.00,,SKC,0.12,VWS V14.00,2013-02-13 12:54:00,
2013-02-13 07:59:00,43.5,35.5,28.64,West,274,0.0,0.0,73,0.00,,SKC,0.12,VWS V14.00,2013-02-13 12:59:00,
2013-02-13 08:04:00,43.5,35.5,28.64,West,274,0.0,0.0,73,0.00,,SKC,0.12,VWS V14.00,2013-02-13 13:04:00,
2013-02-13 08:09:00,43.5,35.5,28.64,West,274,0.0,0.0,73,0.00,,SKC,0.12,VWS V14.00,2013-02-13 13:09:00,
2013-02-13 08:14:00,43.5,35.5,28.64,West,274,0.0,0.0,73,0.00,,SKC,0.12,VWS V14.00,2013-02-13 13:14:00,
2013-02-13 08:19:00,43.7,35.6,28.64,West,274,0.0,0.0,73,0.00,,SKC,0.12,VWS V14.00,2013-02-13 13:19:00,
2013-02-13 08:24:00,43.7,35.6,28.64,West,274,0.0,0.0,73,0.04,,SKC,0.16,VWS V14.00,2013-02-13 13:24:00,
2013-02-13 08:29:00,43.7,35.6,28.64,West,274,0.0,0.0,73,0.04,,SKC,0.16,VWS V14.00,2013-02-13 13:29:00,
2013-02-13 08:34:00,43.7,36.0,28.64,West,274,0.0,0.0,74,0.04,,SKC,0.16,VWS V14.00,2013-02-13 13:34:00,
2013-02-13 08:39:00,43.7,36.0,28.64,West,274,0.0,0.0,74,0.04,,SKC,0.16,VWS V14.00,2013-02-13 13:39:00,
2013-02-13 08:44:00,43.9,36.1,28.64,West,274,0.0,0.0,74,0.04,,SKC,0.16,VWS V14.00,2013-02-13 13:44:00,
2013-02-13 08:49:00,43.9,36.1,28.64,West,274,0.0,0.0,74,0.04,,SKC,0.16,VWS V14.00,2013-02-13 13:49:00,
2013-02-13 08:54:00,44.1,36.3,28.64,West,274,0.0,0.0,74,0.04,,SKC,0.16,VWS V14.00,2013-02-13 13:54:00,
2013-02-13 08:59:00,44.2,36.5,28.64,West,274,0.0,0.0,74,0.04,,SKC,0.16,VWS V14.00,2013-02-13 13:59:00,
2013-02-13 09:04:00,44.2,36.5,28.64,SW,218,0.0,0.0,74,0.04,,SKC,0.16,VWS V14.00,2013-02-13 14:04:00,
2013-02-13 09:09:00,44.2,36.5,28.64,SW,218,0.0,0.0,74,0.04,,SKC,0.16,VWS V14.00,2013-02-13 14:09:00,
2013-02-13 09:14:00,44.4,36.7,28.64,SW,218,0.0,0.0,74,0.04,,SKC,0.16,VWS V14.00,2013-02-13 14:14:00,
2013-02-13 09:19:00,44.6,36.8,28.67,SW,218,0.0,0.0,74,0.04,,SKC,0.16,VWS V14.00,2013-02-13 14:19:00,
2013-02-13 09:24:00,44.6,36.8,28.67,SSW,194,0.0,0.0,74,0.00,,SKC,0.16,VWS V14.00,2013-02-13 14:24:00,
2013-02-13 09:29:00,44.8,37.0,28.67,SSW,194,0.0,0.0,74,0.00,,SKC,0.16,VWS V14.00,2013-02-13 14:29:00,
2013-02-13 09:34:00,45.0,37.5,28.64,SSW,207,0.0,0.0,75,0.00,,SKC,0.16,VWS V14.00,2013-02-13 14:34:00,
2013-02-13 09:39:00,45.1,37.7,28.64,SSW,206,0.0,0.0,75,0.00,,SKC,0.16,VWS V14.00,2013-02-13 14:39:00,
2013-02-13 09:44:00,45.1,37.7,28.64,SSW,206,0.0,0.0,75,0.00,,SKC,0.16,VWS V14.00,2013-02-13 14:44:00,
2013-02-13 09:49:00,45.1,37.7,28.64,SSW,206,0.0,0.0,75,0.00,,SKC,0.16,VWS V14.00,2013-02-13 14:49:00,
2013-02-13 09:54:00,45.1,37.7,28.64,SSW,206,0.0,0.0,75,0.00,,SKC,0.16,VWS V14.00,2013-02-13 14:54:00,
2013-02-13 09:59:00,45.1,37.7,28.64,South,181,0.0,0.0,75,0.00,,SKC,0.16,VWS V14.00,2013-02-13 14:59:00,
2013-02-13 10:04:00,45.1,37.7,28.64,South,181,0.0,0.0,75,0.00,,SKC,0.16,VWS V14.00,2013-02-13 15:04:00,
2013-02-13 10:09:00,45.1,37.7,28.64,South,181,0.0,0.0,75,0.00,,SKC,0.16,VWS V14.00,2013-02-13 15:09:00,
2013-02-13 10:14:00,45.1,37.7,28.64,South,181,0.0,0.0,75,0.00,,SKC,0.16,VWS V14.00,2013-02-13 15:14:00,
2013-02-13 10:19:00,45.1,37.7,28.64,SW,231,0.0,0.0,75,0.00,,SKC,0.16,VWS V14.00,2013-02-13 15:19:00,
2013-02-13 10:24:00,45.1,37.7,28.64,SW,231,0.0,0.0,75,0.00,,SKC,0.16,VWS V14.00,2013-02-13 15:24:00,
2013-02-13 10:29:00,45.1,37.7,28.64,SW,231,0.0,0.0,75,0.00,,SKC,0.16,VWS V14.00,2013-02-13 15:29:00,
2013-02-13 10:34:00,45.1,37.7,28.64,SSW,210,0.0,0.0,75,0.00,,SKC,0.16,VWS V14.00,2013-02-13 15:34:00,
2013-02-13 10:39:00,45.3,37.9,28.64,SSW,210,0.0,0.0,75,0.00,,SKC,0.16,VWS V14.00,2013-02-13 15:39:00,
2013-02-13 10:44:00,45.3,38.2,28.64,SW,218,0.0,0.0,76,0.00,,SKC,0.16,VWS V14.00,2013-02-13 15:44:00,
2013-02-13 10:49:00,45.3,38.2,28.67,WSW,237,0.0,0.0,76,0.04,,SKC,0.20,VWS V14.00,2013-02-13 15:49:00,
2013-02-13 10:54:00,45.3,38.2,28.67,SW,225,0.0,0.0,76,0.04,,SKC,0.20,VWS V14.00,2013-02-13 15:54:00,
2013-02-13 10:59:00,45.5,38.4,28.67,SW,225,0.0,0.0,76,0.04,,SKC,0.20,VWS V14.00,2013-02-13 15:59:00,
2013-02-13 11:04:00,45.7,38.6,28.64,SW,221,0.0,0.0,76,0.04,,SKC,0.20,VWS V14.00,2013-02-13 16:04:00,
2013-02-13 11:09:00,45.9,38.7,28.64,SSW,213,0.0,0.0,76,0.04,,SKC,0.20,VWS V14.00,2013-02-13 16:09:00,
2013-02-13 11:14:00,46.0,38.9,28.64,South,174,4.8,4.9,76,0.04,,SKC,0.20,VWS V14.00,2013-02-13 16:14:00,
2013-02-13 11:19:00,46.2,39.1,28.64,South,172,0.0,4.9,76,0.04,,SKC,0.20,VWS V14.00,2013-02-13 16:19:00,
2013-02-13 11:24:00,46.4,39.3,28.64,WSW,243,0.0,0.0,76,0.04,,SKC,0.20,VWS V14.00,2013-02-13 16:24:00,
2013-02-13 11:29:00,46.4,39.3,28.64,SW,234,0.0,6.3,76,0.04,,SKC,0.20,VWS V14.00,2013-02-13 16:29:00,
2013-02-13 11:34:00,46.6,39.8,28.67,SW,218,0.0,3.6,77,0.04,,SKC,0.20,VWS V14.00,2013-02-13 16:34:00,
2013-02-13 11:39:00,46.6,39.8,28.67,NE,42,0.0,3.6,77,0.04,,SKC,0.20,VWS V14.00,2013-02-13 16:39:00,
2013-02-13 11:44:00,46.9,40.1,28.67,SSW,213,0.0,5.4,77,0.04,,SKC,0.20,VWS V14.00,2013-02-13 16:44:00,
2013-02-13 11:49:00,47.1,40.3,28.64,SW,219,2.7,5.4,77,0.04,,SKC,0.20,VWS V14.00,2013-02-13 16:49:00,
2013-02-13 11:54:00,47.5,41.0,28.64,SSW,199,3.8,4.9,78,0.00,,SKC,0.20,VWS V14.00,2013-02-13 16:54:00,
2013-02-13 11:59:00,47.8,41.3,28.64,SW,221,0.0,4.9,78,0.00,,SKC,0.20,VWS V14.00,2013-02-13 16:59:00,
2013-02-13 12:04:00,48.2,41.7,28.64,SW,236,2.7,6.7,78,0.00,,SKC,0.20,VWS V14.00,2013-02-13 17:04:00,
2013-02-13 12:09:00,48.4,41.8,28.64,WSW,241,0.0,6.7,78,0.00,,SKC,0.20,VWS V14.00,2013-02-13 17:09:00,
2013-02-13 12:14:00,48.2,41.7,28.64,SSW,205,6.4,6.4,78,0.00,,SKC,0.20,VWS V14.00,2013-02-13 17:14:00,
2013-02-13 12:19:00,48.2,41.7,28.64,SW,227,7.0,7.0,78,0.00,,SKC,0.20,VWS V14.00,2013-02-13 17:19:00,
2013-02-13 12:24:00,48.4,41.8,28.64,SW,222,4.8,5.8,78,0.00,,SKC,0.20,VWS V14.00,2013-02-13 17:24:00,
2013-02-13 12:29:00,48.4,41.8,28.64,West,261,0.0,5.8,78,0.00,,SKC,0.20,VWS V14.00,2013-02-13 17:29:00,
2013-02-13 12:34:00,48.6,42.0,28.64,NNW,346,4.8,6.3,78,0.00,,SKC,0.20,VWS V14.00,2013-02-13 17:34:00,
2013-02-13 12:39:00,48.6,42.0,28.64,West,262,0.0,6.3,78,0.00,,SKC,0.20,VWS V14.00,2013-02-13 17:39:00,
2013-02-13 12:44:00,48.6,42.0,28.64,WSW,243,0.0,3.6,78,0.00,,SKC,0.20,VWS V14.00,2013-02-13 17:44:00,
2013-02-13 12:49:00,48.6,42.0,28.64,SW,229,2.7,4.9,78,0.00,,SKC,0.20,VWS V14.00,2013-02-13 17:49:00,
2013-02-13 12:54:00,48.6,42.0,28.64,SW,233,4.8,8.1,78,0.00,,SKC,0.20,VWS V14.00,2013-02-13 17:54:00,
2013-02-13 12:59:00,48.7,42.5,28.64,WSW,243,8.6,8.6,79,0.00,,SKC,0.20,VWS V14.00,2013-02-13 17:59:00,
2013-02-13 13:04:00,48.7,42.2,28.64,NNW,331,4.3,6.3,78,0.00,,SKC,0.20,VWS V14.00,2013-02-13 18:04:00,
2013-02-13 13:09:00,48.7,42.5,28.64,SW,230,6.4,6.4,79,0.00,,SKC,0.20,VWS V14.00,2013-02-13 18:09:00,
2013-02-13 13:14:00,48.6,42.3,28.64,WSW,246,0.0,5.4,79,0.00,,SKC,0.20,VWS V14.00,2013-02-13 18:14:00,
2013-02-13 13:19:00,48.4,41.8,28.64,WSW,253,0.0,8.7,78,0.00,,SKC,0.20,VWS V14.00,2013-02-13 18:19:00,
2013-02-13 13:24:00,48.4,41.8,28.64,SW,218,7.5,7.5,78,0.00,,SKC,0.20,VWS V14.00,2013-02-13 18:24:00,
2013-02-13 13:30:00,48.2,41.7,28.64,WSW,240,0.0,6.3,78,0.00,,SKC,0.20,VWS V14.00,2013-02-13 18:30:00,
2013-02-13 13:35:00,48.2,42.0,28.67,WSW,248,3.8,6.3,79,0.00,,SKC,0.20,VWS V14.00,2013-02-13 18:35:00,
2013-02-13 13:40:00,48.2,42.0,28.67,WSW,241,0.0,0.0,79,0.00,,SKC,0.20,VWS V14.00,2013-02-13 18:40:00,
2013-02-13 13:45:00,48.2,42.0,28.67,WSW,241,3.8,6.3,79,0.00,,SKC,0.20,VWS V14.00,2013-02-13 18:45:00,
2013-02-13 13:50:00,48.0,41.8,28.67,SW,236,3.2,7.6,79,0.00,,SKC,0.20,VWS V14.00,2013-02-13 18:50:00,
2013-02-13 13:55:00,48.4,42.2,28.67,NNW,334,7.0,7.6,79,0.00,,SKC,0.20,VWS V14.00,2013-02-13 18:55:00,
2013-02-13 14:00:00,48.4,41.8,28.67,WSW,241,2.7,10.1,78,0.00,,SKC,0.20,VWS V14.00,2013-02-13 19:00:00,
2013-02-13 14:05:00,48.2,41.7,28.67,WSW,239,0.0,3.6,78,0.00,,SKC,0.20,VWS V14.00,2013-02-13 19:05:00,
2013-02-13 14:10:00,48.0,41.5,28.67,SW,236,0.0,0.0,78,0.00,,SKC,0.20,VWS V14.00,2013-02-13 19:10:00,
2013-02-13 14:15:00,48.0,41.8,28.67,WSW,237,0.0,4.0,79,0.04,,SKC,0.24,VWS V14.00,2013-02-13 19:15:00,
2013-02-13 14:20:00,48.2,41.7,28.67,WSW,246,3.2,4.0,78,0.04,,SKC,0.24,VWS V14.00,2013-02-13 19:20:00,
2013-02-13 14:25:00,48.4,41.8,28.67,West,278,0.0,5.4,78,0.04,,SKC,0.24,VWS V14.00,2013-02-13 19:25:00,
2013-02-13 14:30:00,48.6,42.3,28.67,SW,224,6.4,6.4,79,0.04,,SKC,0.24,VWS V14.00,2013-02-13 19:30:00,
2013-02-13 14:35:00,48.6,42.0,28.67,WSW,254,3.2,5.8,78,0.04,,SKC,0.24,VWS V14.00,2013-02-13 19:35:00,
2013-02-13 14:40:00,48.6,42.0,28.67,WSW,243,2.7,4.9,78,0.04,,SKC,0.24,VWS V14.00,2013-02-13 19:40:00,
2013-02-13 14:45:00,48.4,41.8,28.67,WSW,239,4.3,4.9,78,0.04,,SKC,0.24,VWS V14.00,2013-02-13 19:45:00,
2013-02-13 14:50:00,48.2,41.7,28.67,WSW,245,5.9,5.9,78,0.04,,SKC,0.24,VWS V14.00,2013-02-13 19:50:00,
2013-02-13 14:55:00,48.0,41.5,28.67,SW,234,0.0,4.9,78,0.04,,SKC,0.24,VWS V14.00,2013-02-13 19:55:00,
2013-02-13 15:00:00,47.8,41.3,28.67,SW,220,4.3,4.3,78,0.04,,SKC,0.24,VWS V14.00,2013-02-13 20:00:00,
2013-02-13 15:05:00,47.5,41.0,28.70,SW,236,0.0,3.6,78,0.04,,SKC,0.24,VWS V14.00,2013-02-13 20:05:00,
2013-02-13 15:10:00,47.1,40.3,28.70,NW,304,3.2,5.8,77,0.04,,SKC,0.24,VWS V14.00,2013-02-13 20:10:00,
2013-02-13 15:15:00,46.4,39.3,28.70,NNW,327,6.4,8.3,76,0.04,,SKC,0.24,VWS V14.00,2013-02-13 20:15:00,
2013-02-13 15:20:00,45.9,38.4,28.70,West,276,5.9,5.9,75,0.00,,SKC,0.24,VWS V14.00,2013-02-13 20:20:00,
2013-02-13 15:25:00,45.3,37.9,28.70,WSW,247,0.0,7.2,75,0.00,,SKC,0.24,VWS V14.00,2013-02-13 20:25:00,
2013-02-13 15:30:00,45.0,37.5,28.70,WSW,252,0.0,3.6,75,0.00,,SKC,0.24,VWS V14.00,2013-02-13 20:30:00,
2013-02-13 15:35:00,44.8,37.3,28.73,NW,320,8.6,8.6,75,0.00,,SKC,0.24,VWS V14.00,2013-02-13 20:35:00,
2013-02-13 15:40:00,45.0,37.2,28.73,SW,229,0.0,0.0,74,0.00,,SKC,0.24,VWS V14.00,2013-02-13 20:40:00,
2013-02-13 15:45:00,45.3,37.5,28.73,SW,225,3.2,5.8,74,0.00,,SKC,0.24,VWS V14.00,2013-02-13 20:45:00,
2013-02-13 15:50:00,45.5,37.7,28.73,WSW,239,3.8,3.8,74,0.00,,SKC,0.24,VWS V14.00,2013-02-13 20:50:00,
2013-02-13 15:55:00,45.3,36.8,28.73,NW,309,3.8,8.1,72,0.00,,SKC,0.24,VWS V14.00,2013-02-13 20:55:00,
2013-02-13 16:00:00,45.3,36.8,28.73,SW,219,3.8,3.8,72,0.00,,SKC,0.24,VWS V14.00,2013-02-13 21:00:00,
2013-02-13 16:05:00,45.0,36.1,28.76,WSW,238,5.9,8.7,71,0.00,,SKC,0.24,VWS V14.00,2013-02-13 21:05:00,
2013-02-13 16:10:00,44.6,35.8,28.76,West,262,0.0,0.0,71,0.00,,SKC,0.24,VWS V14.00,2013-02-13 21:10:00,
2013-02-13 16:15:00,44.4,36.0,28.76,NW,310,5.9,5.9,72,0.00,,SKC,0.24,VWS V14.00,2013-02-13 21:15:00,
2013-02-13 16:20:00,44.1,35.3,28.76,NW,306,4.8,4.8,71,0.00,,SKC,0.24,VWS V14.00,2013-02-13 21:20:00,
2013-02-13 16:25:00,43.9,35.1,28.76,SSW,195,6.4,6.4,71,0.00,,SKC,0.24,VWS V14.00,2013-02-13 21:25:00,
2013-02-13 16:30:00,43.5,34.8,28.76,SW,229,4.3,4.3,71,0.00,,SKC,0.24,VWS V14.00,2013-02-13 21:30:00,
2013-02-13 16:35:00,43.3,34.9,28.76,NW,317,6.4,6.4,72,0.00,,SKC,0.24,VWS V14.00,2013-02-13 21:35:00,
2013-02-13 16:40:00,43.0,34.6,28.76,WSW,239,0.0,0.0,72,0.00,,SKC,0.24,VWS V14.00,2013-02-13 21:40:00,
2013-02-13 16:45:00,42.8,34.1,28.76,SW,236,0.0,5.8,71,0.00,,SKC,0.24,VWS V14.00,2013-02-13 21:45:00,
2013-02-13 16:50:00,42.6,33.9,28.79,WNW,290,4.3,5.4,71,0.00,,SKC,0.24,VWS V14.00,2013-02-13 21:50:00,
2013-02-13 16:55:00,42.4,33.7,28.79,NW,322,4.3,6.3,71,0.00,,SKC,0.24,VWS V14.00,2013-02-13 21:55:00,
2013-02-13 17:00:00,42.3,33.5,28.79,West,265,0.0,0.0,71,0.00,,SKC,0.24,VWS V14.00,2013-02-13 22:00:00,
2013-02-13 17:05:00,42.1,33.4,28.79,SW,235,0.0,5.4,71,0.00,,SKC,0.24,VWS V14.00,2013-02-13 22:05:00,
2013-02-13 17:10:00,41.9,33.2,28.79,NW,321,3.8,3.8,71,0.00,,SKC,0.24,VWS V14.00,2013-02-13 22:10:00,
2013-02-13 17:15:00,41.9,33.2,28.79,NW,319,0.0,3.6,71,0.00,,SKC,0.24,VWS V14.00,2013-02-13 22:15:00,
2013-02-13 17:20:00,41.7,33.0,28.82,NW,326,2.7,3.6,71,0.00,,SKC,0.24,VWS V14.00,2013-02-13 22:20:00,
2013-02-13 17:25:00,41.7,33.4,28.82,SW,217,0.0,3.6,72,0.00,,SKC,0.24,VWS V14.00,2013-02-13 22:25:00,
2013-02-13 17:30:00,41.7,33.4,28.82,SW,227,0.0,0.0,72,0.00,,SKC,0.24,VWS V14.00,2013-02-13 22:30:00,
2013-02-13 17:35:00,41.7,33.4,28.79,SW,235,0.0,0.0,72,0.00,,SKC,0.24,VWS V14.00,2013-02-13 22:35:00,
2013-02-13 17:40:00,41.5,33.2,28.79,WSW,251,0.0,0.0,72,0.00,,SKC,0.24,VWS V14.00,2013-02-13 22:40:00,
2013-02-13 17:45:00,41.5,33.2,28.79,NW,308,0.0,0.0,72,0.00,,SKC,0.24,VWS V14.00,2013-02-13 22:45:00,
2013-02-13 17:50:00,41.4,33.0,28.82,NW,304,0.0,0.0,72,0.00,,SKC,0.24,VWS V14.00,2013-02-13 22:50:00,
2013-02-13 17:55:00,41.2,32.8,28.82,SW,224,0.0,3.6,72,0.00,,SKC,0.24,VWS V14.00,2013-02-13 22:55:00,
2013-02-13 18:00:00,41.2,32.8,28.82,NW,322,0.0,0.0,72,0.00,,SKC,0.24,VWS V14.00,2013-02-13 23:00:00,
2013-02-13 18:05:00,41.0,32.7,28.82,SW,235,0.0,2.2,72,0.00,,SKC,0.24,VWS V14.00,2013-02-13 23:05:00,
2013-02-13 18:10:00,41.0,32.7,28.82,SW,235,0.0,0.0,72,0.00,,SKC,0.24,VWS V14.00,2013-02-13 23:10:00,
2013-02-13 18:15:00,41.0,32.7,28.82,SW,215,0.0,0.0,72,0.00,,SKC,0.24,VWS V14.00,2013-02-13 23:15:00,
2013-02-13 18:20:00,40.8,32.5,28.85,NW,317,0.0,0.0,72,0.00,,SKC,0.24,VWS V14.00,2013-02-13 23:20:00,
2013-02-13 18:25:00,40.8,32.5,28.85,WNW,302,0.0,0.0,72,0.00,,SKC,0.24,VWS V14.00,2013-02-13 23:25:00,
2013-02-13 18:30:00,40.8,32.5,28.85,WNW,302,0.0,0.0,72,0.00,,SKC,0.24,VWS V14.00,2013-02-13 23:30:00,
2013-02-13 18:35:00,40.8,32.5,28.85,NW,324,0.0,0.0,72,0.00,,SKC,0.24,VWS V14.00,2013-02-13 23:35:00,
2013-02-13 18:40:00,40.8,32.5,28.85,WSW,241,0.0,0.0,72,0.00,,SKC,0.24,VWS V14.00,2013-02-13 23:40:00,
2013-02-13 18:45:00,40.6,32.3,28.85,WSW,237,0.0,0.0,72,0.00,,SKC,0.24,VWS V14.00,2013-02-13 23:45:00,
2013-02-13 18:50:00,40.6,32.3,28.85,SSW,213,0.0,0.0,72,0.00,,SKC,0.24,VWS V14.00,2013-02-13 23:50:00,
2013-02-13 18:55:00,40.6,32.7,28.85,SW,227,0.0,0.0,73,0.00,,SKC,0.24,VWS V14.00,2013-02-13 23:55:00,
2013-02-13 19:00:00,40.6,32.7,28.85,SW,227,0.0,0.0,73,0.00,,SKC,0.24,VWS V14.00,2013-02-14 00:00:00,
2013-02-13 19:05:00,40.5,32.5,28.85,SW,227,0.0,0.0,73,0.00,,SKC,0.24,VWS V14.00,2013-02-14 00:05:00,
2013-02-13 19:10:00,40.5,32.5,28.85,SW,227,0.0,0.0,73,0.00,,SKC,0.24,VWS V14.00,2013-02-14 00:10:00,
2013-02-13 19:15:00,40.3,32.3,28.85,SW,227,0.0,0.0,73,0.00,,SKC,0.24,VWS V14.00,2013-02-14 00:15:00,
2013-02-13 19:20:00,40.3,32.3,28.85,SW,227,0.0,0.0,73,0.00,,SKC,0.24,VWS V14.00,2013-02-14 00:20:00,
2013-02-13 19:25:00,40.3,32.3,28.85,SW,227,0.0,0.0,73,0.00,,SKC,0.24,VWS V14.00,2013-02-14 00:25:00,
2013-02-13 19:30:00,40.1,32.2,28.85,SW,227,0.0,0.0,73,0.00,,SKC,0.24,VWS V14.00,2013-02-14 00:30:00,
2013-02-13 19:35:00,39.9,32.0,28.85,SW,227,0.0,0.0,73,0.00,,SKC,0.24,VWS V14.00,2013-02-14 00:35:00,
2013-02-13 19:40:00,39.7,31.8,28.85,SW,227,0.0,0.0,73,0.00,,SKC,0.24,VWS V14.00,2013-02-14 00:40:00,
2013-02-13 19:45:00,39.7,31.8,28.85,SW,227,0.0,0.0,73,0.00,,SKC,0.24,VWS V14.00,2013-02-14 00:45:00,
2013-02-13 19:50:00,39.7,31.8,28.88,SW,227,0.0,0.0,73,0.00,,SKC,0.24,VWS V14.00,2013-02-14 00:50:00,
2013-02-13 19:55:00,39.7,31.8,28.88,SW,227,0.0,0.0,73,0.00,,SKC,0.24,VWS V14.00,2013-02-14 00:55:00,
2013-02-13 20:00:00,39.9,32.0,28.88,SW,227,0.0,0.0,73,0.00,,SKC,0.24,VWS V14.00,2013-02-14 01:00:00,
2013-02-13 20:05:00,39.9,32.0,28.88,SW,227,0.0,0.0,73,0.00,,SKC,0.24,VWS V14.00,2013-02-14 01:05:00,
2013-02-13 20:11:00,39.7,31.8,28.88,SW,227,0.0,0.0,73,0.00,,SKC,0.24,VWS V14.00,2013-02-14 01:11:00,
2013-02-13 20:16:00,39.7,31.8,28.88,SW,227,0.0,0.0,73,0.00,,SKC,0.24,VWS V14.00,2013-02-14 01:16:00,
2013-02-13 20:21:00,39.6,31.6,28.88,South,184,0.0,0.0,73,0.00,,SKC,0.24,VWS V14.00,2013-02-14 01:21:00,
2013-02-13 20:26:00,39.6,31.6,28.88,South,184,0.0,0.0,73,0.00,,SKC,0.24,VWS V14.00,2013-02-14 01:26:00,
2013-02-13 20:31:00,39.4,31.5,28.88,South,184,0.0,0.0,73,0.00,,SKC,0.24,VWS V14.00,2013-02-14 01:31:00,
2013-02-13 20:36:00,39.4,31.5,28.88,South,184,0.0,0.0,73,0.00,,SKC,0.24,VWS V14.00,2013-02-14 01:36:00,
2013-02-13 20:41:00,39.4,31.5,28.88,NW,326,0.0,0.0,73,0.00,,SKC,0.24,VWS V14.00,2013-02-14 01:41:00,
2013-02-13 20:46:00,39.4,31.5,28.88,NW,326,0.0,0.0,73,0.00,,SKC,0.24,VWS V14.00,2013-02-14 01:46:00,
2013-02-13 20:51:00,39.4,31.5,28.88,NW,326,0.0,0.0,73,0.00,,SKC,0.24,VWS V14.00,2013-02-14 01:51:00,
2013-02-13 20:56:00,39.4,31.5,28.88,SSW,213,0.0,0.0,73,0.00,,SKC,0.24,VWS V14.00,2013-02-14 01:56:00,
2013-02-13 21:01:00,39.4,31.5,28.88,SSW,213,0.0,0.0,73,0.00,,SKC,0.24,VWS V14.00,2013-02-14 02:01:00,
2013-02-13 21:06:00,39.0,31.1,28.88,SSW,213,0.0,0.0,73,0.00,,SKC,0.24,VWS V14.00,2013-02-14 02:06:00,
2013-02-13 21:11:00,39.0,31.5,28.88,SSW,213,0.0,0.0,74,0.00,,SKC,0.24,VWS V14.00,2013-02-14 02:11:00,
2013-02-13 21:16:00,38.8,31.3,28.88,SSW,213,0.0,0.0,74,0.00,,SKC,0.24,VWS V14.00,2013-02-14 02:16:00,
2013-02-13 21:21:00,38.8,30.9,28.88,SSW,213,0.0,0.0,73,0.00,,SKC,0.24,VWS V14.00,2013-02-14 02:21:00,
2013-02-13 21:26:00,38.7,30.8,28.88,SSW,213,0.0,0.0,73,0.00,,SKC,0.24,VWS V14.00,2013-02-14 02:26:00,
2013-02-13 21:31:00,38.7,30.8,28.88,SSW,213,0.0,0.0,73,0.00,,SKC,0.24,VWS V14.00,2013-02-14 02:31:00,
2013-02-13 21:36:00,38.7,30.8,28.91,SSW,213,0.0,0.0,73,0.00,,SKC,0.24,VWS V14.00,2013-02-14 02:36:00,
2013-02-13 21:41:00,38.7,31.1,28.91,SSW,213,0.0,0.0,74,0.00,,SKC,0.24,VWS V14.00,2013-02-14 02:41:00,
2013-02-13 21:46:00,38.7,31.1,28.91,SSW,213,0.0,0.0,74,0.00,,SKC,0.24,VWS V14.00,2013-02-14 02:46:00,
2013-02-13 21:51:00,38.7,31.1,28.91,SSW,213,0.0,0.0,74,0.00,,SKC,0.24,VWS V14.00,2013-02-14 02:51:00,
2013-02-13 21:56:00,38.5,30.9,28.91,SSW,213,0.0,0.0,74,0.00,,SKC,0.24,VWS V14.00,2013-02-14 02:56:00,
2013-02-13 22:01:00,38.5,30.9,28.91,SSW,213,0.0,0.0,74,0.00,,SKC,0.24,VWS V14.00,2013-02-14 03:01:00,
2013-02-13 22:06:00,38.5,30.9,28.91,SSW,213,0.0,0.0,74,0.00,,SKC,0.24,VWS V14.00,2013-02-14 03:06:00,
2013-02-13 22:11:00,38.5,30.9,28.91,SSW,213,0.0,0.0,74,0.00,,SKC,0.24,VWS V14.00,2013-02-14 03:11:00,
2013-02-13 22:16:00,38.3,30.8,28.91,SSW,213,0.0,0.0,74,0.00,,SKC,0.24,VWS V14.00,2013-02-14 03:16:00,
2013-02-13 22:21:00,38.3,30.8,28.91,SSW,213,0.0,0.0,74,0.00,,SKC,0.24,VWS V14.00,2013-02-14 03:21:00,
2013-02-13 22:26:00,38.3,30.8,28.91,SSW,213,0.0,0.0,74,0.00,,SKC,0.24,VWS V14.00,2013-02-14 03:26:00,
2013-02-13 22:31:00,38.3,30.8,28.91,SSW,213,0.0,0.0,74,0.00,,SKC,0.24,VWS V14.00,2013-02-14 03:31:00,
2013-02-13 22:36:00,38.3,30.8,28.91,SSW,213,0.0,0.0,74,0.00,,SKC,0.24,VWS V14.00,2013-02-14 03:36:00,
2013-02-13 22:41:00,38.5,30.9,28.91,SSW,213,0.0,0.0,74,0.00,,SKC,0.24,VWS V14.00,2013-02-14 03:41:00,
2013-02-13 22:46:00,38.5,30.9,28.91,SSW,213,0.0,0.0,74,0.00,,SKC,0.24,VWS V14.00,2013-02-14 03:46:00,
2013-02-13 22:51:00,38.5,30.9,28.91,SSW,213,0.0,0.0,74,0.00,,SKC,0.24,VWS V14.00,2013-02-14 03:51:00,
2013-02-13 22:56:00,38.3,31.1,28.91,SSW,213,0.0,0.0,75,0.00,,SKC,0.24,VWS V14.00,2013-02-14 03:56:00,
2013-02-13 23:01:00,38.3,31.1,28.91,SSW,213,0.0,0.0,75,0.00,,SKC,0.24,VWS V14.00,2013-02-14 04:01:00,
2013-02-13 23:06:00,38.3,31.1,28.91,SSW,213,0.0,0.0,75,0.00,,SKC,0.24,VWS V14.00,2013-02-14 04:06:00,
2013-02-13 23:11:00,38.5,31.3,28.91,SSW,213,0.0,0.0,75,0.00,,SKC,0.24,VWS V14.00,2013-02-14 04:11:00,
2013-02-13 23:16:00,38.5,31.3,28.94,SSW,213,0.0,0.0,75,0.00,,SKC,0.24,VWS V14.00,2013-02-14 04:16:00,
2013-02-13 23:21:00,38.1,30.9,28.94,SSW,213,0.0,0.0,75,0.00,,SKC,0.24,VWS V14.00,2013-02-14 04:21:00,
2013-02-13 23:26:00,38.1,30.9,28.94,SSW,213,0.0,0.0,75,0.00,,SKC,0.24,VWS V14.00,2013-02-14 04:26:00,
2013-02-13 23:31:00,38.1,30.9,28.94,SSW,213,0.0,0.0,75,0.00,,SKC,0.24,VWS V14.00,2013-02-14 04:31:00,
2013-02-13 23:36:00,38.1,30.9,28.94,SSW,213,0.0,0.0,75,0.00,,SKC,0.24,VWS V14.00,2013-02-14 04:36:00,
2013-02-13 23:41:00,38.3,31.1,28.94,SSW,213,0.0,0.0,75,0.00,,SKC,0.24,VWS V14.00,2013-02-14 04:41:00,
2013-02-13 23:46:00,38.3,31.1,28.94,SSW,213,0.0,0.0,75,0.00,,SKC,0.24,VWS V14.00,2013-02-14 04:46:00,
2013-02-13 23:51:00,38.3,31.1,28.94,SSW,213,0.0,0.0,75,0.00,,SKC,0.24,VWS V14.00,2013-02-14 04:51:00,
2013-02-13 23:56:00,38.3,31.1,28.94,SSW,213,0.0,0.0,75,0.00,,SKC,0.24,VWS V14.00,2013-02-14 04:56:00,